This is the latest recevied weather packets stored in our database for station/object SV7GBF-2. If no packets are shown the sender has not sent any weather packets the latest 10 day(s).
| Time | Temp. | Humidity | Pressure | Rain* | Wind** | Luminosity | Snow |
|---|---|---|---|---|---|---|---|
| 1788505445 | 26.11° C | 40% | 1015 hPa | - | - | - | - |
| 1788503645 | 24.44° C | 62% | 1015 hPa | - | - | - | - |
| 1788501844 | 24.44° C | 54% | 1015 hPa | - | - | - | - |
| 1788501244 | 23.89° C | 51% | 1015 hPa | - | - | - | - |
| 1788500646 | 23.33° C | 50% | 1015 hPa | - | - | - | - |
| 1788500044 | 22.78° C | 50% | 1015 hPa | - | - | - | - |
| 1788499445 | 22.22° C | 50% | 1015 hPa | - | - | - | - |
| 1788498245 | 21.67° C | 49% | 1015 hPa | - | - | - | - |
| 1788497644 | 21.11° C | 49% | 1015 hPa | - | - | - | - |
| 1788497045 | 21.11° C | 48% | 1015 hPa | - | - | - | - |
| 1788496445 | 21.11° C | 49% | 1015 hPa | - | - | - | - |
| 1788495845 | 21.11° C | 50% | 1015 hPa | - | - | - | - |
| 1788494645 | 20.56° C | 47% | 1015 hPa | - | - | - | - |
| 1788494044 | 21.11° C | 47% | 1015 hPa | - | - | - | - |
| 1788493446 | 20.56° C | 47% | 1015 hPa | - | - | - | - |
| 1788492845 | 21.11° C | 46% | 1015 hPa | - | - | - | - |
| 1788491645 | 21.11° C | 47% | 1014 hPa | - | - | - | - |
| 1788491045 | 21.11° C | 47% | 1014 hPa | - | - | - | - |
| 1788490445 | 21.11° C | 46% | 1014 hPa | - | - | - | - |
| 1788489845 | 21.11° C | 46% | 1014 hPa | - | - | - | - |
| 1788489247 | 21.11° C | 46% | 1014 hPa | - | - | - | - |
| 1788488647 | 21.67° C | 46% | 1014 hPa | - | - | - | - |
| 1788488045 | 21.67° C | 45% | 1014 hPa | - | - | - | - |
| 1788487447 | 21.67° C | 45% | 1014 hPa | - | - | - | - |
| 1788486845 | 21.67° C | 45% | 1014 hPa | - | - | - | - |
* Rain since midnight (hover to see other rain measurements)
** Current wind speed in m/s (hover to see current wind gust speed)